Regional Weather Roundup
Issued by NWS

Home | Current Version | Previous Version | Graphics & Text | Print | Product List | Glossary On
Versions: 1 2 3 4 5 6 7 8 9 10 11 12 13 14 15 16 17 18 19 20 21 22 23 24 25 26 27 28 29 30 31 32 33 34 35 36 37 38 39 40 41 42 43 44 45 46 47 48 49 50
581
ASUS43 KDMX 280506
RWRIA

WEATHER ROUNDUP FOR IOWA
NATIONAL WEATHER SERVICE DES MOINES IA
1200 AM CDT TUE MAR 28 2017

NOTE: "FAIR" INDICATES FEW OR NO CLOUDS BELOW 12,000 FEET WITH NO
SIGNIFICANT WEATHER AND/OR OBSTRUCTIONS TO VISIBILITY.

* - THESE STATIONS ARE NOT NWS STATIONS...THUS NOT UNDER NWS
QUALITY CONTROL.  THEY ALSO DO NOT REPORT WEATHER SUCH
AS PRECIPITATION OR FOG.

IAZ001>003-012>014-020>022-031>034-043>046-280600-
   NORTHWEST IOWA

CITY           SKY/WX    TMP DP  RH WIND       PRES   REMARKS
CARROLL *      CLOUDY    46  45  93 CALM      30.01S
CHEROKEE *     CLEAR     40  39  96 CALM      30.03R
DENISON *      CLOUDY    46  41  81 E6        30.04R
LE MARS *      CLEAR     36  36 100 CALM      30.04R
ORANGE CITY *  CLEAR     41  37  87 CALM      30.02S
SHELDON *      CLEAR     36  34  93 CALM      30.01R
SIOUX CITY     CLEAR     36  36 100 CALM      30.03R
SPENCER        CLEAR     34  34 100 NW5       30.02R WCI  30
STORM LAKE *   CLEAR     41  39  93 CALM      30.01S
$$

IAZ055>058-069>071-079>083-090>094-280600-
   SOUTHWEST IOWA

CITY           SKY/WX    TMP DP  RH WIND       PRES   REMARKS
ATLANTIC *     CLOUDY    46  41  81 NE3       30.03R
AUDUBON *      CLOUDY    46  41  81 CALM      30.03R
CLARINDA *     CLOUDY    48  46  93 CALM      30.05R
COUNCIL BLFS * CLOUDY    43  41  93 E5        30.03R
CRESTON *      CLOUDY    45  41  87 N3        30.03R
HARLAN  *      CLOUDY    46  43  87 CALM      30.06R
LAMONI         CLOUDY    47  43  86 CALM      30.01R
RED OAK *      CLOUDY    48  41  76 N6        30.03R
SHENANDOAH *   CLOUDY    46  45  93 CALM      30.03R
$$

IAZ047>049-059>061-072>074-084-280600-
   CENTRAL IOWA

CITY           SKY/WX    TMP DP  RH WIND       PRES   REMARKS
AMES           CLOUDY    47  43  86 CALM      30.01S
ANKENY *       CLOUDY    46  41  81 NE7       30.02S
BOONE *        CLOUDY    45  45 100 NE3       30.00S
CHARITON *     CLOUDY    46  45  93 NE3       30.00S
DES MOINES     CLOUDY    48  41  76 N3        30.01S
GRINNELL*      CLOUDY    45  42  89 NW3       30.02R
MARSHALLTOWN   CLOUDY    45  43  93 N3        30.00S
NEWTON *       CLOUDY    46  41  81 N3        30.00F
PELLA *        CLOUDY    46  42  86 N5        30.02S
PERRY *        CLOUDY    46  42  85 E3        30.01S
$$

IAZ004>006-015-016-023>025-035-036-280600-
   NORTH CENTRAL IOWA

CITY           SKY/WX    TMP DP  RH WIND       PRES   REMARKS
ALGONA *       FOG       37  37 100 CALM      30.02R VSB 1/4
CLARION *      CLEAR     36  36 100 CALM      30.01S
ESTHERVILLE    CLEAR     36  36 100 CALM      30.01R FOG
FORT DODGE *   CLEAR     36  30  80 CALM      30.02S
MASON CITY     FOG       34  33  96 CALM      30.02S VSB 1/4
FOREST CITY *  FOG       32  28  86 CALM      30.01S VSB 1/2
WEBSTER CITY * CLEAR     41  39  93 N3        29.99S FOG
IOWA FALLS *   CLOUDY    46  42  86 CALM      30.02R
$$

IAZ007>011-017>019-026>030-037>042-050>054-066-280600-
   NORTHEAST IOWA

CITY           SKY/WX    TMP DP  RH WIND       PRES   REMARKS
CEDAR RAPIDS   CLOUDY    47  47 100 CALM      29.99S
CHARLES CITY * CLOUDY    45  45 100 N5        30.01S
CLINTON *      CLOUDY    48  46  93 N6        29.99S
DECORAH *      CLOUDY    43  41  93 CALM      30.00S
DUBUQUE        CLOUDY    46  44  93 N5        30.00R
MONTICELLO *   CLOUDY    46  45  93 CALM      29.99S
OELWEIN *      CLOUDY    45  45 100 N3        30.01S
WATERLOO       CLOUDY    46  42  86 CALM      30.01R
$$

IAZ064-065-067-068-078-280600-
   EAST CENTRAL IOWA

CITY           SKY/WX    TMP DP  RH WIND       PRES   REMARKS
DAVENPORT      CLOUDY    48  45  89 N6        29.98S
IOWA CITY      CLOUDY    50  45  83 N6        30.01R
MUSCATINE *    CLOUDY    50  46  87 CALM      30.00S
QUAD CITIES    CLOUDY    50  44  80 CALM      29.98S
$$

IAZ062-063-075>077-085>089-095>099-280600-
   SOUTHEAST IOWA

CITY           SKY/WX    TMP DP  RH WIND       PRES   REMARKS
BURLINGTON     CLOUDY    50  47  89 N7        29.98R
FAIRFIELD *    CLOUDY    48  46  93 NW3       30.00R FOG
FORT MADISON * CLOUDY    50  46  87 NW5       30.00R
KEOKUK *       CLOUDY    50  48  93 NW3       29.99R
OSKALOOSA *    CLOUDY    46  43  89 N3        30.01S
CENTERVILLE *  CLOUDY    46  46 100 CALM      30.02R
OTTUMWA        CLOUDY    48  46  93 N3        30.00R
WASHINGTON *   CLOUDY    48  48 100 N3        30.01R FOG
$$

ABBREVIATIONS USED IN REMARKS
   TC - TEMPERATURES IN CELSIUS
  WCI - WIND CHILL INDEX
   HX - HEAT INDEX
  VSB - VISIBILITY
$$





USA.gov is the U.S. government's official web portal to all federal, state and local government web resources and services.